When you browse on this site, cookies collect data to enhance your experience and personalize the content and advertising you see.
Visit our Privacy Policy to learn more. By continuing to use the site, you agree to this use of cookies and data.
  • în România
  • Lista ţărilor
  • Pe 7 zile
  • Temperatura apei
  • Hartă satelitară
  • Meteo pe hartă
  • Widget-uri
  • user-avatar
    Intrare

    Meteo pe oră la Artashat

    Astăzi, 22 Ianuarie, Marţi

    Timp Temperatura Precipitaţii Vânt Presiune Umiditate
    00:00 -10°C° 0 mm 2 m/s 597 mmHg 52%
    01:00 -10°C° 0 mm 2 m/s 597 mmHg 52%
    02:00 -12°C° 0 mm 2 m/s 597 mmHg 52%
    03:00 -10°C° 0 mm 1 m/s 597 mmHg 52%
    04:00 -10°C° 0 mm 1 m/s 597 mmHg 52%
    05:00 -12°C° 0 mm 2 m/s 597 mmHg 52%
    06:00 -12°C° 0 mm 2 m/s 596 mmHg 53%
    07:00 -9°C° 0 mm 1 m/s 597 mmHg 53%
    08:00 -9°C° 0 mm 1 m/s 597 mmHg 53%
    09:00 -8°C° 0 mm 1 m/s 597 mmHg 54%
    10:00 -7°C° 0 mm 1 m/s 597 mmHg 52%
    11:00 -4°C° 0 mm 1 m/s 598 mmHg 50%
    12:00 -4°C° 0 mm 0 m/s 598 mmHg 48%
    13:00 -4°C° 0 mm 0 m/s 597 mmHg 50%
    14:00 -3°C° 0 mm 0 m/s 597 mmHg 52%
    15:00 -2°C° 0 mm 1 m/s 597 mmHg 54%
    16:00 -3°C° 0 mm 1 m/s 597 mmHg 57%
    17:00 -6°C° 0 mm 1 m/s 597 mmHg 59%
    18:00 -7°C° 0 mm 1 m/s 597 mmHg 61%
    19:00 -7°C° 0 mm 1 m/s 597 mmHg 62%
    20:00 -8°C° 0 mm 1 m/s 597 mmHg 63%
    21:00 -8°C° 0 mm 1 m/s 597 mmHg 64%
    22:00 -8°C° 0 mm 1 m/s 597 mmHg 65%
    23:00 -8°C° 0 mm 1 m/s 597 mmHg 65%

    Mâine, 23 Ianuarie, Miercuri

    Timp Temperatura Precipitaţii Vânt Presiune Umiditate
    00:00 -9°C° 0 mm 1 m/s 597 mmHg 65%
    01:00 -9°C° 0 mm 1 m/s 597 mmHg 66%
    02:00 -9°C° 0 mm 1 m/s 597 mmHg 66%
    03:00 -9°C° 0 mm 1 m/s 597 mmHg 66%
    04:00 -9°C° 0 mm 1 m/s 597 mmHg 67%
    05:00 -9°C° 0 mm 1 m/s 597 mmHg 67%
    06:00 -10°C° 0 mm 1 m/s 597 mmHg 68%
    07:00 -9°C° 0 mm 1 m/s 597 mmHg 67%
    08:00 -8°C° 0 mm 1 m/s 598 mmHg 66%
    09:00 -7°C° 0 mm 1 m/s 599 mmHg 65%
    10:00 -6°C° 0 mm 1 m/s 599 mmHg 63%
    11:00 -4°C° 0 mm 1 m/s 599 mmHg 61%
    12:00 -3°C° 0 mm 1 m/s 599 mmHg 60%
    13:00 -2°C° 0 mm 1 m/s 599 mmHg 61%
    14:00 -2°C° 0 mm 1 m/s 599 mmHg 62%
    15:00 -2°C° 0 mm 1 m/s 599 mmHg 63%
    16:00 -3°C° 0 mm 1 m/s 598 mmHg 65%
    17:00 -4°C° 0 mm 1 m/s 598 mmHg 67%
    18:00 -7°C° 0 mm 1 m/s 598 mmHg 69%
    19:00 -7°C° 0 mm 1 m/s 598 mmHg 69%
    20:00 -7°C° 0 mm 1 m/s 599 mmHg 69%
    21:00 -7°C° 0 mm 1 m/s 599 mmHg 68%
    22:00 -8°C° 0 mm 1 m/s 599 mmHg 68%
    23:00 -8°C° 0 mm 1 m/s 599 mmHg 68%

    Poimâine, 24 Ianuarie, Joi

    Timp Temperatura Precipitaţii Vânt Presiune Umiditate
    00:00 -8°C° 0 mm 1 m/s 599 mmHg 68%
    01:00 -8°C° 0 mm 1 m/s 599 mmHg 68%
    02:00 -8°C° 0 mm 1 m/s 599 mmHg 68%
    03:00 -9°C° 0 mm 1 m/s 599 mmHg 69%
    04:00 -9°C° 0 mm 1 m/s 599 mmHg 69%
    05:00 -9°C° 0 mm 1 m/s 599 mmHg 69%
    06:00 -9°C° 0 mm 1 m/s 599 mmHg 70%
    07:00 -8°C° 0 mm 1 m/s 599 mmHg 69%
    08:00 -7°C° 0 mm 1 m/s 600 mmHg 67%
    09:00 -6°C° 0 mm 1 m/s 600 mmHg 66%
    10:00 -4°C° 0 mm 1 m/s 600 mmHg 65%
    11:00 -3°C° 0 mm 1 m/s 600 mmHg 64%
    12:00 -1°C° 0 mm 1 m/s 600 mmHg 62%
    13:00 -3°C° 0 mm 2 m/s 600 mmHg 63%
    14:00 -3°C° 0 mm 2 m/s 600 mmHg 64%
    15:00 -3°C° 0 mm 2 m/s 600 mmHg 64%
    16:00 -4°C° 0 mm 2 m/s 599 mmHg 66%
    17:00 -5°C° 0 mm 2 m/s 599 mmHg 68%
    18:00 -7°C° 0 mm 2 m/s 599 mmHg 69%
    19:00 -7°C° 0 mm 2 m/s 599 mmHg 68%
    20:00 -7°C° 0 mm 2 m/s 599 mmHg 66%
    21:00 -8°C° 0 mm 2 m/s 599 mmHg 64%
    22:00 -7°C° 0 mm 2 m/s 599 mmHg 63%
    23:00 -7°C° 0 mm 2 m/s 599 mmHg 62%

    25 Ianuarie, Vineri

    Timp Temperatura Precipitaţii Vânt Presiune Umiditate
    00:00 -7°C° 0 mm 2 m/s 599 mmHg 61%
    01:00 -7°C° 0 mm 2 m/s 598 mmHg 61%
    02:00 -6°C° 0 mm 1 m/s 598 mmHg 61%
    03:00 -4°C° 0 mm 1 m/s 598 mmHg 61%
    04:00 -4°C° 0.1 mm 1 m/s 598 mmHg 63%
    05:00 -4°C° 0.1 mm 1 m/s 597 mmHg 65%
    06:00 -4°C° 0.1 mm 1 m/s 597 mmHg 67%
    07:00 -4°C° 0.2 mm 1 m/s 597 mmHg 69%
    08:00 -3°C° 0.2 mm 1 m/s 598 mmHg 71%
    09:00 -3°C° 0.2 mm 1 m/s 598 mmHg 73%
    10:00 -2°C° 0.2 mm 1 m/s 598 mmHg 71%
    11:00 -1°C° 0.2 mm 1 m/s 598 mmHg 70%
    12:00 -2°C° 0.2 mm 2 m/s 599 mmHg 68%
    13:00 -2°C° 0.2 mm 2 m/s 598 mmHg 70%
    14:00 -2°C° 0.2 mm 2 m/s 598 mmHg 71%
    15:00 -2°C° 0.2 mm 2 m/s 597 mmHg 73%
    16:00 -3°C° 0 mm 2 m/s 597 mmHg 74%
    17:00 -4°C° 0 mm 2 m/s 597 mmHg 76%
    18:00 -6°C° 0 mm 2 m/s 597 mmHg 77%
    19:00 -6°C° 0 mm 2 m/s 597 mmHg 77%
    20:00 -6°C° 0 mm 2 m/s 597 mmHg 77%
    21:00 -7°C° 0 mm 2 m/s 597 mmHg 76%
    22:00 -7°C° 0 mm 2 m/s 597 mmHg 76%
    23:00 -7°C° 0 mm 2 m/s 597 mmHg 76%

    26 Ianuarie, Sâmbătă

    Timp Temperatura Precipitaţii Vânt Presiune Umiditate
    00:00 -7°C° 0 mm 2 m/s 597 mmHg 75%
    01:00 -7°C° 0 mm 2 m/s 597 mmHg 75%
    02:00 -7°C° 0 mm 2 m/s 597 mmHg 76%
    03:00 -7°C° 0 mm 2 m/s 597 mmHg 76%
    04:00 -7°C° 0 mm 2 m/s 596 mmHg 75%
    05:00 -8°C° 0 mm 2 m/s 596 mmHg 75%
    06:00 -8°C° 0 mm 2 m/s 596 mmHg 75%
    07:00 -7°C° 0 mm 2 m/s 597 mmHg 73%
    08:00 -6°C° 0 mm 2 m/s 597 mmHg 71%
    09:00 -6°C° 0 mm 2 m/s 597 mmHg 68%
    10:00 -4°C° 0 mm 2 m/s 597 mmHg 68%
    11:00 -3°C° 0 mm 2 m/s 597 mmHg 67%
    12:00 -1°C° 0 mm 2 m/s 597 mmHg 66%
    13:00 -1°C° 0 mm 2 m/s 597 mmHg 65%
    14:00 -1°C° 0 mm 2 m/s 597 mmHg 63%
    15:00 -1°C° 0 mm 2 m/s 596 mmHg 62%
    16:00 -2°C° 0 mm 2 m/s 596 mmHg 64%
    17:00 -3°C° 0 mm 2 m/s 596 mmHg 66%
    18:00 -4°C° 0 mm 2 m/s 595 mmHg 68%
    19:00 -5°C° 0 mm 2 m/s 595 mmHg 68%
    20:00 -5°C° 0 mm 2 m/s 595 mmHg 68%
    21:00 -5°C° 0 mm 2 m/s 595 mmHg 67%
    22:00 -5°C° 0 mm 2 m/s 595 mmHg 67%
    23:00 -5°C° 0 mm 2 m/s 595 mmHg 67%

    27 Ianuarie, Duminică

    Timp Temperatura Precipitaţii Vânt Presiune Umiditate
    00:00 -5°C° 0 mm 2 m/s 595 mmHg 68%
    01:00 -5°C° 0 mm 2 m/s 594 mmHg 68%
    02:00 -5°C° 0 mm 2 m/s 594 mmHg 68%
    03:00 -5°C° 0 mm 2 m/s 594 mmHg 69%
    04:00 -6°C° 0 mm 3 m/s 594 mmHg 70%
    05:00 -6°C° 0 mm 3 m/s 594 mmHg 71%
    06:00 -6°C° 0 mm 3 m/s 594 mmHg 72%
    07:00 -5°C° 0 mm 3 m/s 594 mmHg 72%
    08:00 -4°C° 0 mm 3 m/s 595 mmHg 71%
    09:00 -4°C° 0 mm 3 m/s 595 mmHg 71%
    10:00 -2°C° 0.1 mm 2 m/s 595 mmHg 72%
    11:00 +1°C° 0.1 mm 2 m/s 595 mmHg 73%
    12:00 +2°C° 0.1 mm 2 m/s 595 mmHg 74%
    13:00 +2°C° 0.1 mm 2 m/s 595 mmHg 72%
    14:00 +2°C° 0.1 mm 2 m/s 595 mmHg 70%
    15:00 +4°C° 0.1 mm 1 m/s 594 mmHg 68%
    16:00 +1°C° 0.2 mm 2 m/s 594 mmHg 69%
    17:00 -1°C° 0.2 mm 2 m/s 594 mmHg 70%
    18:00 -2°C° 0.2 mm 2 m/s 594 mmHg 71%
    19:00 -2°C° 0.2 mm 2 m/s 594 mmHg 71%
    20:00 -2°C° 0.2 mm 2 m/s 594 mmHg 71%
    21:00 -3°C° 0.2 mm 2 m/s 594 mmHg 72%
    22:00 -2°C° 0.3 mm 2 m/s 594 mmHg 73%
    23:00 -2°C° 0.3 mm 2 m/s 594 mmHg 75%
    Arată mai mult